Weather History for Glenwood, MN

Change the Weather History Date:

Friday, May 24, 2013

  Actual Average Record
Temperature  
Mean Temperature 52 °F -  
Max Temperature 66 °F 69 °F 85 °F (1980)
Min Temperature 39 °F 46 °F 33 °F (2002)
Degree Days  
Heating Degree Days 12    
Growing Degree Days 2 (Base 50)    
Moisture  
Dew Point 40 °F    
Average Humidity 65    
Maximum Humidity 94    
Minimum Humidity 34    
Precipitation  
Precipitation 0.23 in - - ()
Sea Level Pressure  
Sea Level Pressure 30.27 in    
Wind  
Wind Speed 9 mph (SE)    
Max Wind Speed 22 mph    
Max Gust Speed 28 mph    
Visibility 10 miles    
Events Rain , Thunderstorm    
Averages and records for this station are not official NWS values.
T = Trace of Precipitation, MM = Missing Value Source: NWS Daily Summary

Daily Weather History Graph

Daily Weather History Graph

Search for Another Location

Airport:

Trip Planner

Search our weather history database for the weather conditions in past years. The results will help you decide how hot, cold, wet, or windy it might be!

Date:

Astronomy

May. 24, 2013 Rise Set
Actual Time 5:40 AM CDT 8:55 PM CDT
Civil Twilight 5:04 AM CDT 9:32 PM CDT
Nautical Twilight 4:18 AM CDT 10:19 PM CDT
Astronomical Twilight 3:20 AM CDT 11:17 PM CDT
Moon 8:37 PM CDT (5/24) 5:16 AM CDT (5/24)
Length of Visible Light 16h 27m
Length of Day
15h 15m
Full, 100% of the Moon is Illuminated
May 24
Full
May 24
Full
May 31
Last Quarter
Jun 8
New
Jun 16
First Quarter

Hourly Weather History & Observations

Time (CDT) Temp. Windchill Dew Point Humidity Pressure Visibility Wind Dir Wind Speed Gust Speed Precip Events Conditions
12:13 AM 48.2 °F - 33.8 °F 58% 30.33 in 10.0 mi SE 4.6 mph - N/A   Clear
12:33 AM 46.4 °F 44.3 °F 37.4 °F 71% 30.33 in 10.0 mi ESE 4.6 mph - N/A   Clear
12:54 AM 46.4 °F 44.3 °F 35.6 °F 66% 30.34 in 10.0 mi SE 4.6 mph - N/A   Clear
1:13 AM 46.4 °F 44.3 °F 35.6 °F 66% 30.33 in 10.0 mi ESE 4.6 mph - N/A   Clear
1:33 AM 46.4 °F 43.5 °F 35.6 °F 66% 30.33 in 10.0 mi SE 5.8 mph - N/A   Clear
1:54 AM 46.4 °F 43.5 °F 35.6 °F 66% 30.33 in 10.0 mi ESE 5.8 mph - N/A   Clear
2:13 AM 42.8 °F 38.6 °F 35.6 °F 76% 30.33 in 10.0 mi ESE 6.9 mph - N/A   Clear
2:33 AM 42.8 °F 38.0 °F 35.6 °F 76% 30.32 in 10.0 mi ESE 8.1 mph - N/A   Clear
2:54 AM 42.8 °F 38.6 °F 35.6 °F 76% 30.32 in 10.0 mi SE 6.9 mph - N/A   Clear
3:13 AM 42.8 °F 38.6 °F 35.6 °F 76% 30.32 in 10.0 mi SE 6.9 mph - N/A   Clear
3:33 AM 41.0 °F 36.4 °F 33.8 °F 76% 30.32 in 10.0 mi SE 6.9 mph - N/A   Clear
3:54 AM 41.0 °F 35.8 °F 33.8 °F 76% 30.32 in 10.0 mi SE 8.1 mph - N/A   Clear
4:13 AM 39.2 °F 35.0 °F 33.8 °F 81% 30.32 in 10.0 mi SE 5.8 mph - N/A   Clear
4:33 AM 39.2 °F 34.2 °F 33.8 °F 81% 30.33 in 10.0 mi SE 6.9 mph - N/A   Clear
4:53 AM 39.2 °F 34.2 °F 33.8 °F 81% 30.33 in 10.0 mi SE 6.9 mph - N/A   Clear
5:13 AM 39.2 °F 34.2 °F 33.8 °F 81% 30.33 in 10.0 mi ESE 6.9 mph - N/A   Clear
5:33 AM 39.2 °F 34.2 °F 32.0 °F 75% 30.33 in 10.0 mi ESE 6.9 mph - N/A   Clear
5:53 AM 39.2 °F 34.2 °F 32.0 °F 75% 30.33 in 10.0 mi ESE 6.9 mph - N/A   Clear
6:13 AM 39.2 °F 34.2 °F 32.0 °F 75% 30.33 in 10.0 mi ESE 6.9 mph - N/A   Clear
6:34 AM 39.2 °F 33.6 °F 33.8 °F 81% 30.33 in 10.0 mi ESE 8.1 mph - N/A   Clear
6:53 AM 42.8 °F 37.5 °F 33.8 °F 70% 30.33 in 10.0 mi ESE 9.2 mph - N/A   Clear
7:13 AM 44.6 °F 39.2 °F 33.8 °F 66% 30.32 in 10.0 mi ESE 10.4 mph - N/A   Clear
7:34 AM 46.4 °F 41.9 °F 35.6 °F 66% 30.32 in 10.0 mi SE 9.2 mph - N/A   Clear
7:53 AM 46.4 °F 41.5 °F 35.6 °F 66% 30.33 in 10.0 mi SE 10.4 mph - N/A   Clear
8:13 AM 48.2 °F - 35.6 °F 62% 30.33 in 10.0 mi ESE 11.5 mph - N/A   Clear
8:34 AM 51.8 °F - 35.6 °F 54% 30.33 in 10.0 mi SE 13.8 mph - N/A   Clear
8:53 AM 51.8 °F - 35.6 °F 54% 30.32 in 10.0 mi SE 10.4 mph - N/A   Clear
9:13 AM 53.6 °F - 37.4 °F 54% 30.32 in 10.0 mi SE 9.2 mph - N/A   Clear
9:34 AM 55.4 °F - 35.6 °F 47% 30.32 in 10.0 mi SSE 13.8 mph - N/A   Clear
9:53 AM 55.4 °F - 35.6 °F 47% 30.32 in 10.0 mi SE 12.7 mph - N/A   Clear
10:13 AM 57.2 °F - 35.6 °F 44% 30.32 in 10.0 mi SE 15.0 mph - N/A   Clear
10:34 AM 59.0 °F - 35.6 °F 42% 30.31 in 10.0 mi SE 11.5 mph 18.4 mph N/A   Clear
10:53 AM 60.8 °F - 33.8 °F 36% 30.31 in 10.0 mi SE 17.3 mph - N/A   Clear
11:13 AM 60.8 °F - 35.6 °F 39% 30.30 in 10.0 mi SE 16.1 mph 20.7 mph N/A   Clear
11:34 AM 59.0 °F - 33.8 °F 39% 30.30 in 10.0 mi SE 15.0 mph - N/A   Clear
11:53 AM 62.6 °F - 35.6 °F 37% 30.29 in 10.0 mi SSE 16.1 mph - N/A   Clear
12:13 PM 62.6 °F - 35.6 °F 37% 30.28 in 10.0 mi SSE 18.4 mph 24.2 mph N/A   Clear
12:34 PM 62.6 °F - 35.6 °F 37% 30.28 in 10.0 mi SE 12.7 mph 24.2 mph N/A   Clear
12:53 PM 64.4 °F - 35.6 °F 34% 30.27 in 10.0 mi SSE 18.4 mph 21.9 mph N/A   Clear
1:13 PM 64.4 °F - 37.4 °F 37% 30.26 in 10.0 mi SE 13.8 mph 21.9 mph N/A   Clear
1:34 PM 66.2 °F - 37.4 °F 35% 30.24 in 10.0 mi SE 21.9 mph 27.6 mph N/A   Clear
1:53 PM 64.4 °F - 37.4 °F 37% 30.23 in 10.0 mi SE 17.3 mph 24.2 mph N/A   Clear
2:13 PM 64.4 °F - 37.4 °F 37% 30.22 in 10.0 mi SE 15.0 mph - N/A   Clear
2:34 PM 64.4 °F - 37.4 °F 37% 30.23 in 10.0 mi SSE 17.3 mph 25.3 mph N/A   Scattered Clouds
2:53 PM 64.4 °F - 37.4 °F 37% 30.23 in 10.0 mi SSE 17.3 mph 24.2 mph N/A   Scattered Clouds
3:13 PM 62.6 °F - 37.4 °F 39% 30.23 in 10.0 mi SE 12.7 mph - N/A   Mostly Cloudy
3:33 PM 62.6 °F - 37.4 °F 39% 30.24 in 10.0 mi SE 12.7 mph - N/A   Mostly Cloudy
3:53 PM 62.6 °F - 37.4 °F 39% 30.26 in 10.0 mi SSE 6.9 mph - N/A   Overcast
4:13 PM 62.6 °F - 41.0 °F 45% 30.24 in 10.0 mi SE 8.1 mph - N/A Rain Light Rain
4:33 PM 60.8 °F - 42.8 °F 52% 30.26 in 10.0 mi SE 4.6 mph - N/A Rain Light Rain
4:53 PM 57.2 °F - 46.4 °F 67% 30.25 in 10.0 mi ESE 8.1 mph - N/A Rain Rain
5:13 PM 55.4 °F - 48.2 °F 77% 30.23 in 10.0 mi ESE 8.1 mph - 0.02 in Rain , Thunderstorm Light Thunderstorms and Rain
5:33 PM 53.6 °F - 48.2 °F 82% 30.19 in 10.0 mi ESE 13.8 mph - 0.07 in Rain Rain
5:53 PM 53.6 °F - 48.2 °F 82% 30.21 in 10.0 mi East 9.2 mph - 0.10 in Rain Light Rain
6:14 PM 53.6 °F - 48.2 °F 82% 30.20 in 10.0 mi East 10.4 mph - 0.04 in Rain , Thunderstorm Thunderstorms and Rain
6:33 PM 53.6 °F - 48.2 °F 82% 30.21 in 10.0 mi East 6.9 mph - 0.05 in Rain Rain
6:53 PM 51.8 °F - 48.2 °F 88% 30.20 in 10.0 mi East 8.1 mph - 0.08 in Rain , Thunderstorm Light Thunderstorms and Rain
7:14 PM 53.6 °F - 48.2 °F 82% 30.19 in 10.0 mi East 15.0 mph - 0.01 in Rain , Thunderstorm Light Thunderstorms and Rain
7:33 PM 53.6 °F - 48.2 °F 82% 30.17 in 10.0 mi ESE 18.4 mph - 0.01 in Rain Light Rain
7:53 PM 53.6 °F - 48.2 °F 82% 30.17 in 10.0 mi East 13.8 mph - 0.01 in Rain , Thunderstorm Light Thunderstorms and Rain
8:14 PM 53.6 °F - 48.2 °F 82% 30.17 in 10.0 mi East 17.3 mph - N/A Rain Light Rain
8:33 PM 53.6 °F - 48.2 °F 82% 30.18 in 10.0 mi East 13.8 mph - 0.01 in Rain Rain
8:53 PM 53.6 °F - 48.2 °F 82% 30.18 in 10.0 mi ESE 16.1 mph - 0.02 in   Light Drizzle
9:14 PM 53.6 °F - 48.2 °F 82% 30.18 in 10.0 mi ESE 15.0 mph - N/A Rain Rain
9:33 PM 53.6 °F - 48.2 °F 82% 30.18 in 10.0 mi East 17.3 mph 21.9 mph 0.02 in Rain Light Rain
9:53 PM 53.6 °F - 50.0 °F 88% 30.19 in 10.0 mi ESE 17.3 mph 21.9 mph 0.02 in   Light Drizzle
10:14 PM 53.6 °F - 50.0 °F 88% 30.19 in 10.0 mi ESE 16.1 mph 21.9 mph N/A   Drizzle
10:33 PM 53.6 °F - 50.0 °F 88% 30.19 in 10.0 mi ESE 16.1 mph - N/A   Drizzle
10:53 PM 53.6 °F - 50.0 °F 88% 30.19 in 10.0 mi East 13.8 mph - N/A   Drizzle
11:14 PM 53.6 °F - 51.8 °F 94% 30.20 in 10.0 mi ESE 13.8 mph - N/A   Drizzle
11:33 PM 53.6 °F - 50.0 °F 88% 30.20 in 10.0 mi ESE 12.7 mph - N/A   Light Drizzle
11:53 PM 53.6 °F - 50.0 °F 88% 30.19 in 10.0 mi ESE 15.0 mph - N/A   Overcast